Showing default

SPACEMOBILE-001, 61047

Orbit data source: Space-Track

SPACEMOBILE-001, 61047 is a payload satellite owned by AST & Science (US) in LEO that was launched on Thu, 12 Sep 2024 UTC via an FALCON 9 launch vehicle from the Air Force Eastern Test Range (AFETR). Payload-class satellites include a variety of spacecraft equipped with specific instruments for various scientific and technological missions. These include communications satellites like Starlink; space stations such as the ISS; scientific satellites like the Hubble; Earth observation satellites from companies like Planet Labs, Umbra, and HawkEye 360; GPS; miniature CubeSats for education and research; and military/defense satellites.

Loading next visibility...
Identifier
61047, 2024-163C
Orbit
LEO
Last TLE update
14 hours ago
Origin
Manufacturer
AST & Science
Mission
Operational Commercial Communications
Bus & Motor
BW3, Unknown motor
Mass
1,500 kg wet, 1,500 kg dry
Launch date (UTC)
2024-09-12 (10 months ago)
Launch vehicle
FALCON 9
Launch site
Air Force Eastern Test Range (AFETR)
Object type
Payload
Rocket body
Debris
Shape & HBR
Box + 1 Plate, 9 m
Radar Cross Section
1.500 m², Large (>1 m²)

Expand to show TLE details & history

TLE from 14 hours ago
0 SPACEMOBILE-001
1 61047U 24163C   25181.82250803  .00001393  00000-0  77982-4 0  9992
2 61047  52.9698 125.0919 0011542 137.2593 222.9301 15.20366773 44297
Epoch: 2025-06-30T19:44Z
TLE epoch observation values (Epoch: 2025-06-30T19:44:24.693Z)
Latitude
-0.00001°
Longitude
-90.13779°
Altitude
511.43 km
Speed
7.606 km/s
True Right ascension
08h 20m 22s
True Declination
0° 00' 00"
Sunlit
Object was in daylight at epoch
Visualization orbit readout
Latitude
43.73415°
Longitude
-47.0357°
Altitude
507.638 km
Speed
7.617 km/s
Apparent Right ascension
10h 31m 58s
Apparent Declination
3° 55' 26"
Sunlit
Object is in daylight
Visualization observer readout
Local Sidereal Time
21:50:27
Azimuth
345.241° N
Elevation
-45.134°
Doppler factor
1
Orbital elements
Apogee altitude
512.964 km
Perigee altitude
497.075 km
Semi-major axis
6,883.156 km
Eccentricity
0.00115
Inclination
52.9698°
RAAN
125.0919°
Arg. of periapsis
137.2593°
True anomaly
Unknown
Mean anomaly
222.9301°
Eccentric anomaly
Unknown
Mean motion
3.80068 °/min
Orbital period
94.72 mins
BSTAR
0.000077982
Loading maneuver chart data...
Loading SW <> Apogee altitude chart data...
Loading historical data...
Loading historical data...
Loading historical data...
Loading historical data...
Loading historical data...
Loading historical data...
Loading historical data...

SPACEMOBILE-001 Visibility forecast

Observer location: undefined°, undefined°

Span
Click to sort rows by Start time (UTC) header in descending order
Start Az.
Max El. time (UTC)
Max El. Az.
Max El.
End time (UTC)
End Az.
7 mins2025-07-01 22:44:02.898Z223.568° SW2025-07-01 22:47:02.898Z189.431° SSW43.239°2025-07-01 22:51:02.898Z53.078° ENE
4 mins2025-07-02 00:25:02.898Z309.285° NW2025-07-02 00:26:02.898Z330.566° NNW19.802°2025-07-02 00:29:02.898Z25.494° NE
5 mins2025-07-02 05:23:02.898Z318.457° NNW2025-07-02 05:25:02.898Z37.013° NE43.474°2025-07-02 05:28:02.898Z121.586° SE
|